Theta_e
307 316 324 324 324 323 322 322 323 327 328 328 327 327 325 323 324 323 325 326 326 327 326 327 327 328 327 328 329 330 330 331 332 334 331 328 328 335 340 340 340 335 345
309 313 321 322 321 321 322 323 325 325 326 325 324 324 323 322 323 324 323 322 323 323 324 324 324 324 326 327 325 325 326 326 328 329 326 321 322 329 334 336 336 336 341
308 311 313 320 319 320 320 320 324 324 323 322 321 323 321 320 321 322 321 322 322 322 322 323 323 323 323 324 324 324 325 325 326 326 320 310 310 325 329 332 333 333 335
306 308 311 318 318 319 319 320 322 321 319 319 320 319 319 319 319 320 320 321 321 321 321 321 321 321 322 322 322 322 323 324 323 321 308 308 309 319 326 328 330 329 331
304 306 311 316 318 319 320 320 318 318 318 318 318 318 318 317 318 318 318 319 319 319 319 320 320 320 320 320 320 321 321 321 320 312 305 304 307 313 323 325 323 325 328
301 303 310 316 318 318 318 318 317 317 316 316 316 315 315 314 315 316 316 317 318 318 318 318 318 318 319 319 319 319 319 318 316 305 303 305 304 317 321 321 323 324 324
298 300 304 313 314 316 315 315 315 315 314 314 313 314 312 312 314 315 314 314 316 317 317 317 317 318 318 318 318 318 317 317 306 302 302 303 303 316 318 320 321 322 323
297 297 300 309 311 311 313 313 313 312 312 313 314 315 314 313 313 313 313 314 316 316 316 316 317 316 317 317 316 316 316 315 301 298 299 300 308 316 318 319 320 321 322
297 296 296 299 304 308 310 311 311 311 312 312 312 312 311 310 311 311 311 314 315 315 315 315 315 315 315 314 313 314 314 312 298 296 298 298 311 316 318 318 319 320 321
295 296 295 295 297 297 298 309 309 310 310 310 309 309 308 307 309 308 310 312 313 314 314 313 313 313 313 310 311 312 311 307 296 296 297 298 312 316 318 318 319 319 320
296 294 295 295 296 296 297 303 304 308 308 307 304 306 300 294 296 298 307 310 311 311 310 310 310 310 308 306 308 308 307 297 296 296 296 307 311 315 316 317 318 318 319
292 293 294 294 295 295 301 295 295 298 295 295 295 294 294 293 297 300 304 307 308 307 306 306 307 306 302 295 295 301 296 296 295 296 296 310 312 314 316 316 317 318 318
292 294 295 295 295 294 295 294 294 294 293 294 294 294 292 293 292 292 293 294 294 301 295 296 295 295 294 294 295 295 295 295 295 295 298 309 312 314 315 315 316 316 318
293 294 295 296 295 294 294 294 293 294 293 293 293 293 291 291 291 291 292 292 293 293 292 292 292 293 293 294 294 294 294 295 295 295 297 308 310 312 314 315 315 316 316
291 293 294 295 294 294 293 293 292 291 292 292 292 292 291 291 291 292 291 292 292 292 292 292 292 293 293 293 293 294 294 294 295 297 296 306 309 311 312 313 313 314 314
291 292 294 296 295 294 293 292 292 291 292 292 291 291 293 291 291 291 291 292 292 292 293 293 293 293 293 293 294 294 294 295 295 296 296 296 307 309 310 311 312 313 314
289 292 293 295 295 294 293 293 292 292 293 291 291 291 292 292 291 290 291 291 292 292 293 292 292 293 292 294 293 294 295 295 295 295 295 296 297 304 307 308 310 311 312
289 291 293 298 295 293 292 292 292 292 292 291 291 291 293 293 292 291 291 290 291 291 292 291 290 290 290 291 291 292 293 293 294 294 295 294 295 296 300 305 308 310 311
290 291 292 293 293 293 292 292 291 291 291 291 291 291 292 293 294 291 291 291 291 290 290 290 290 288 288 289 291 290 290 291 292 294 293 293 294 295 295 301 305 306 309
290 291 292 292 292 292 291 290 290 290 291 291 291 292 292 292 293 292 291 291 291 290 289 289 288 289 289 289 292 290 289 290 291 289 291 294 294 294 294 295 296 298 307
290 290 291 292 292 291 290 288 288 288 289 290 291 293 293 292 293 292 291 291 291 290 289 289 288 288 288 288 287 289 287 288 288 290 290 291 292 294 294 295 296 298 301
290 290 290 292 292 292 290 290 289 289 290 291 292 292 293 293 293 293 291 291 290 290 290 289 288 287 287 288 286 284 282 284 289 290 290 291 292 292 293 294 295 298 299
289 289 290 292 292 292 291 291 290 290 290 291 291 291 292 293 293 293 292 291 291 290 289 289 289 288 286 289 288 286 281 279 285 288 289 290 290 291 292 293 295 297 298
290 289 291 292 292 292 291 290 289 288 288 289 289 290 292 293 292 293 293 292 291 291 290 290 292 289 287 286 287 290 291 288 281 283 287 290 292 291 292 293 294 296 297
290 289 290 291 292 292 291 290 289 288 288 289 290 290 290 291 292 293 292 291 291 291 291 291 291 289 288 287 285 286 289 286 285 285 284 287 291 293 293 293 293 294 296
289 289 290 291 292 291 291 290 289 288 289 289 289 289 290 290 291 292 293 291 291 291 290 291 291 290 290 288 287 286 287 286 287 287 284 287 288 291 293 293 292 294 295
Wind_Speed
4 6 9 10 11 10 10 7 9 12 11 13 11 15 16 13 14 14 14 15 16 16 16 17 17 19 17 17 17 17 17 17 17 19 19 19 20 19 16 16 14 10 16
5 7 10 10 9 8 9 10 11 13 12 12 12 11 13 14 13 15 15 14 14 15 17 16 16 15 17 18 16 16 17 16 17 18 20 19 21 20 18 16 14 13 17
7 5 7 10 8 7 8 8 11 12 12 11 12 12 12 12 14 14 15 16 14 15 16 17 17 16 16 18 18 18 18 16 16 17 20 10 11 18 18 17 15 17 16
7 6 6 8 7 8 8 8 11 10 9 10 11 12 11 12 11 14 13 14 16 16 16 16 18 17 17 18 18 18 19 19 18 20 8 9 10 17 16 14 16 16 18
7 6 5 8 7 8 8 9 8 9 10 10 11 12 11 11 11 12 13 15 16 16 16 16 17 16 16 16 17 18 18 19 18 13 7 6 5 13 16 15 13 14 15
6 6 7 8 9 10 9 10 10 9 9 9 10 10 9 9 10 12 12 13 14 14 15 16 16 16 17 16 17 16 16 16 15 7 6 8 7 14 14 13 15 16 15
5 3 3 8 8 9 9 9 9 9 9 9 8 9 8 8 10 12 12 12 13 14 14 15 15 16 16 16 16 14 15 16 9 7 7 6 7 15 12 12 14 16 16
7 4 6 7 7 5 8 8 8 8 8 9 11 12 12 12 12 12 12 12 13 14 14 14 15 15 16 17 18 17 16 15 10 6 7 6 14 14 13 12 13 15 16
6 6 4 4 5 7 5 6 7 7 9 10 12 12 12 12 13 13 13 14 15 14 15 16 17 16 18 18 18 17 17 17 7 5 7 4 15 15 13 13 13 15 16
6 6 5 3 4 3 3 6 7 8 9 10 12 13 13 13 13 13 13 13 14 18 18 18 17 18 18 18 17 18 19 18 6 6 5 5 16 17 16 15 15 16 17
4 4 4 3 3 2 1 4 7 9 9 10 9 12 8 4 6 8 12 13 15 16 15 16 16 16 17 18 19 18 17 6 8 6 4 14 16 16 16 16 16 17 17
4 3 4 3 1 3 3 4 4 4 4 3 4 5 4 5 6 8 8 12 14 14 14 14 15 15 13 5 5 12 5 7 6 7 5 18 17 16 16 16 17 18 17
5 3 4 4 3 4 3 2 2 2 2 2 4 4 4 4 4 4 3 3 3 8 3 5 6 4 6 5 5 5 6 6 4 5 8 20 18 17 16 16 17 18 19
6 6 5 4 4 4 2 3 2 2 2 2 3 4 4 3 4 4 2 2 3 2 4 4 3 5 6 6 6 6 7 5 5 4 7 21 17 18 19 17 17 17 19
6 6 5 5 4 4 3 2 2 2 2 1 3 3 3 3 4 3 3 2 3 3 2 4 4 4 5 5 6 6 8 7 7 6 5 19 17 16 17 16 19 20 21
7 7 7 6 4 4 3 2 2 1 1 2 2 2 4 2 3 4 4 3 3 4 4 4 4 4 5 4 5 6 6 7 7 8 6 7 18 18 18 19 19 21 23
6 7 7 7 5 4 4 3 2 1 2 2 2 2 3 3 3 3 3 4 3 4 5 5 4 4 4 5 6 6 5 6 5 7 5 5 7 14 17 17 20 23 23
6 8 7 4 6 5 4 3 3 3 2 2 1 1 2 3 3 4 4 4 4 4 3 4 3 4 4 4 4 5 5 5 6 6 6 6 4 4 9 19 21 22 25
9 8 6 5 7 6 3 2 3 2 2 2 1 1 1 3 3 3 3 3 4 4 3 3 3 2 3 4 5 4 5 4 4 6 7 6 7 6 5 13 19 21 22
9 8 7 5 6 4 2 2 2 2 1 1 2 2 0 1 2 3 3 5 4 3 4 3 2 3 3 4 6 6 5 3 3 4 5 6 6 6 7 8 7 9 19
7 8 8 7 6 4 2 2 1 2 2 2 3 2 2 2 1 1 2 3 3 3 3 3 3 3 4 3 4 8 3 3 3 8 4 4 6 7 9 8 6 7 8
10 9 8 8 7 5 3 3 3 3 3 2 2 3 4 3 3 3 1 2 2 3 4 4 2 3 3 3 3 3 5 5 7 6 4 5 9 7 8 9 9 10 9
10 10 9 8 8 6 6 2 0 1 1 1 2 3 4 3 4 4 3 2 2 1 3 3 3 2 3 4 3 1 4 4 9 3 5 4 7 7 7 9 9 9 10
12 8 9 8 8 7 7 4 5 4 4 3 3 2 3 4 5 4 4 3 3 2 3 3 3 2 1 4 3 1 3 3 3 8 5 6 10 9 9 8 8 8 9
9 10 9 8 8 7 7 7 6 5 3 2 2 3 3 3 4 4 4 4 3 3 4 5 5 5 2 2 2 2 3 2 3 3 10 13 9 9 8 8 7 7 8
8 8 9 10 8 8 8 8 8 8 6 4 4 3 3 2 4 3 4 4 4 4 4 4 5 5 5 3 2 3 3 3 3 3 4 10 10 9 9 7 6 6 7
Wind_Direction
351 43 51 35 26 17 25 24 39 44 39 38 34 22 22 13 14 18 14 14 12 10 10 12 360 6 7 4 7 2 4 3 6 6 9 1 357 353 5 14 12 359 3
76 26 58 43 29 16 32 26 30 33 35 36 31 29 25 19 16 8 15 14 12 5 8 4 4 3 4 0 358 355 356 355 1 2 3 356 350 343 347 356 358 1 1
95 73 34 49 36 30 45 43 49 44 35 26 28 30 29 20 19 7 12 15 6 8 8 4 1 360 360 359 354 351 351 350 359 5 3 349 339 342 342 343 341 341 340
95 67 53 54 49 46 52 47 50 41 33 33 24 29 24 26 23 22 14 7 9 10 5 1 3 357 355 359 352 347 344 347 351 7 1 341 335 337 335 347 344 339 337
81 77 60 64 58 56 46 48 47 41 40 36 24 27 27 26 23 21 14 12 4 3 2 0 358 355 355 352 351 348 348 350 354 359 347 332 337 330 334 342 343 339 331
102 92 74 74 62 55 47 41 47 43 43 41 36 33 33 26 25 20 17 8 6 3 358 357 357 349 351 350 349 349 351 350 5 344 339 330 338 324 333 342 348 344 339
133 110 84 87 68 65 57 52 49 51 51 51 36 32 28 24 27 11 18 3 4 3 358 358 354 346 350 350 352 348 351 354 29 355 341 331 326 328 328 346 341 336 334
129 108 58 53 91 78 46 62 55 53 52 42 34 28 27 17 23 10 12 357 7 4 0 358 353 354 354 357 354 348 349 358 23 350 334 335 326 328 332 335 332 330 328
115 95 78 61 53 34 51 54 47 49 43 38 28 31 31 18 20 14 10 1 9 358 7 359 0 358 1 358 345 344 346 358 3 330 336 331 320 327 326 327 328 326 325
102 106 98 62 50 33 32 39 41 46 34 36 27 30 31 24 22 15 8 8 11 18 12 10 354 2 3 354 353 350 348 351 335 323 322 318 330 330 328 327 324 325 323
91 104 102 75 36 46 45 34 33 37 53 50 43 35 29 11 359 21 5 31 17 19 3 6 3 7 4 358 353 351 354 337 338 330 312 319 329 325 323 325 323 321 319
157 142 122 91 44 37 60 56 48 40 58 60 47 38 23 22 360 33 27 37 30 28 18 19 13 7 357 335 336 348 337 330 331 334 335 329 325 326 322 322 323 318 315
176 157 156 118 87 60 70 77 59 50 48 42 42 48 29 23 10 30 39 26 18 35 4 2 347 333 330 329 329 327 324 331 323 322 328 334 330 322 318 319 320 315 314
168 177 166 135 109 86 96 73 96 79 58 39 28 52 41 20 7 25 23 11 10 345 343 342 331 321 320 319 317 323 323 322 319 310 310 331 319 321 322 319 315 327 318
174 190 177 154 141 134 122 129 118 89 84 102 74 48 63 29 7 2 5 345 336 338 335 339 335 328 323 322 319 322 318 315 314 316 311 324 333 330 322 329 321 321 318
177 179 173 176 175 147 146 159 171 106 138 83 89 49 66 56 14 13 13 344 334 344 348 354 344 341 331 329 322 319 305 307 310 315 317 317 335 341 329 319 328 322 316
193 173 177 186 179 154 174 173 162 213 119 107 115 34 60 48 21 14 17 355 313 336 352 356 349 344 343 336 325 315 301 310 311 316 324 327 323 339 339 338 325 319 316
170 187 194 174 162 176 179 181 198 200 140 152 134 65 50 42 31 19 7 356 332 346 335 340 338 338 337 329 316 314 322 321 319 323 327 326 320 318 335 330 327 325 323
179 181 191 166 170 186 194 183 205 175 163 165 192 147 343 29 18 28 1 337 356 3 332 332 326 339 326 328 316 318 317 317 325 332 319 318 313 320 321 325 329 326 321
171 178 185 175 177 171 121 101 71 116 171 212 228 208 125 336 5 17 353 354 4 5 354 343 310 317 295 309 313 310 305 307 307 327 313 314 313 312 315 310 310 305 318
173 169 182 168 185 158 135 139 138 195 214 245 243 241 213 240 297 323 348 352 3 16 329 334 309 324 304 288 312 333 278 291 338 341 314 308 313 315 316 311 313 311 310
181 187 182 182 180 185 154 183 179 182 219 227 235 252 240 232 243 235 232 309 357 356 359 349 350 308 283 316 331 326 337 334 348 336 325 327 333 320 316 314 314 312 321
190 189 184 187 184 182 180 143 82 13 347 324 260 258 244 242 240 232 222 239 310 314 318 308 285 322 287 311 8 45 347 312 327 313 324 317 326 318 311 315 311 308 306
204 186 183 181 180 186 178 168 186 189 204 226 216 230 266 258 252 246 230 231 256 271 297 282 283 285 216 291 324 265 222 248 303 324 339 332 338 328 320 312 308 300 306
186 189 184 177 181 181 181 182 185 197 217 229 237 245 261 282 266 266 232 237 261 279 282 294 312 315 269 252 203 286 256 281 248 271 320 330 326 331 325 311 304 304 308
181 177 174 176 190 183 183 191 192 202 212 219 238 242 261 271 281 267 241 240 254 268 277 285 290 300 297 261 252 265 235 274 286 261 289 318 320 324 327 315 305 319 316